Location: *
(49.4547°N, 7.9131°E)
Time: 01:49:41
(UTC+00:00)

CZ-4C R/B - Pass Details

Date: 22 September 2019
Orbit: 654 x 1348 km, 63.4° (Epoch: 17 October)

Event Time Altitude Azimuth Distance (km) Brightness Sun altitude
Rises 21:00:17 0° 315° (NW) 3,657 6.6 -31.9°
Reaches altitude 10° 21:02:50 10° 322° (NW) 2,809 5.8 -32.2°
Maximum altitude 21:09:17 45° 34° (NE) 1,527 3.5 -32.9°
Enters shadow 21:09:50 44° 46° (NE) 1,553 3.4 -33.0°
